This demonstration page uses our WeatherBlox Daily Observations layout. Learn more.

Hourly Observations for August 24, 2017

Temp ( °F °C ) Dew Point ( °F °C ) Humidity (%) Winds ( mph kmh ) Pressure ( in mb ) Visibility ( mi km ) Precip ( " mm )
12:15 am 00:15 Clear 63 17.2 51 10.7 66 66 SSE 10 17 29.97 1015 10 16.09344 0 0
12:35 am 00:35 Clear 63 17.1 51 10.8 67 67 SSE 10 17 29.97 1015 10 16.09344 0 0
12:55 am 00:55 Clear 62 16.6 51 10.7 68 68 S 9 15 29.97 1015 10 16.09344 0 0
1:15 am 01:15 Clear 62 16.5 51 10.7 69 69 S 10 17 29.97 1015 10 16.09344 0 0
1:35 am 01:35 Clear 62 16.5 51 10.6 68 68 S 9 15 29.97 1015 10 16.09344 0 0
1:55 am 01:55 Clear 61 15.9 51 10.6 71 71 S 6 9 30 1016 10 16.09344 0 0
2:15 am 02:15 Clear 61 16 51 10.6 71 71 S 6 9 30 1016 10 16.09344 0 0
2:35 am 02:35 Clear 61 16 51 10.5 70 70 S 7 11 30 1016 10 16.09344 0 0
2:55 am 02:55 Clear 60 15.7 51 10.7 72 72 S 8 13 30 1016 10 16.09344 0 0
3:15 am 03:15 Clear 60 15.3 51 10.7 74 74 S 7 11 30 1016 10 16.09344 0 0
3:35 am 03:35 Clear 60 15.5 51 10.6 73 73 S 8 13 30 1016 10 16.09344 0 0
3:55 am 03:55 Clear 60 15.6 51 10.6 72 72 S 10 17 30 1016 10 16.09344 0 0
4:15 am 04:15 Clear 60 15.6 51 10.6 72 72 S 10 17 29.97 1015 10 16.09344 0 0
4:35 am 04:35 Clear 60 15.3 51 10.6 74 74 SSW 9 15 29.97 1015 10 16.09344 0 0
4:55 am 04:55 Clear 60 15.3 51 10.6 74 74 SSW 10 17 29.97 1015 10 16.09344 0 0
5:15 am 05:15 Clear 60 15.7 51 10.5 71 71 SSW 12 19 29.97 1015 10 16.09344 0 0
5:35 am 05:35 Clear 61 15.9 51 10.3 70 70 SSW 9 15 29.97 1015 10 16.09344 0 0
5:55 am 05:55 Clear 60 15.8 51 10.3 70 70 S 9 15 29.97 1015 10 16.09344 0 0
6:15 am 06:15 Clear 60 15.6 51 10.5 72 72 SSW 10 17 29.97 1015 10 16.09344 0 0
6:35 am 06:35 Clear 60 15.6 51 10.5 72 72 SSW 8 13 29.97 1015 10 16.09344 0 0
6:55 am 06:55 Clear 60 15.5 51 10.5 72 72 S 7 11 29.97 1015 10 16.09344 0 0
7:15 am 07:15 Sunny 60 15.4 51 10.5 73 73 S 7 11 29.97 1015 10 16.09344 0 0
7:35 am 07:35 Sunny 60 15.5 51 10.8 74 74 S 8 13 29.97 1015 10 16.09344 0 0
7:55 am 07:55 Sunny 61 16.2 52 11 71 71 S 8 13 29.94 1014 10 16.09344 0 0
8:15 am 08:15 Sunny 63 17.2 52 11.3 68 68 SSW 9 15 29.94 1014 10 16.09344 0 0
8:35 am 08:35 Sunny 65 18.3 54 12 67 67 SSW 10 17 29.94 1014 10 16.09344 0 0
8:55 am 08:55 Sunny 67 19.4 55 13 67 67 SSW 12 19 29.94 1014 10 16.09344 0 0
9:15 am 09:15 Sunny 69 20.5 57 13.9 66 66 SSW 15 24 29.91 1013 10 16.09344 0 0
9:35 am 09:35 Sunny 71 21.4 58 14.7 66 66 SSW 13 20 29.91 1013 10 16.09344 0 0
9:55 am 09:55 Sunny 72 22.4 60 15.6 66 66 SSW 18 30 29.91 1013 10 16.09344 0 0
10:15 am 10:15 Sunny 73 23 61 16.3 66 66 S 9 15 29.91 1013 10 16.09344 0 0
10:35 am 10:35 Sunny 74 23.6 62 16.4 64 64 SSW 13 20 29.88 1012 10 16.09344 0 0
10:55 am 10:55 Sunny 76 24.3 62 16.7 63 63 S 14 22 29.88 1012 10 16.09344 0 0
11:15 am 11:15 Sunny 76 24.3 62 16.9 63 63 SSW 16 26 29.88 1012 10 16.09344 0 0
11:35 am 11:35 Sunny 78 25.6 63 17 59 59 SSW 16 26 29.88 1012 10 16.09344 0 0
11:55 am 11:55 Sunny 80 26.4 64 17.8 59 59 S 12 19 29.88 1012 10 16.09344 0 0
12:15 pm 12:15 Sunny 80 26.7 64 17.7 58 58 S 12 19 29.88 1012 10 16.09344 0 0
12:35 pm 12:35 Sunny 81 27.3 64 17.6 55 55 S 10 17 29.83 1010 10 16.09344 0 0
12:55 pm 12:55 Sunny 82 27.5 64 17.8 56 56 S 14 22 29.83 1010 10 16.09344 0 0
1:15 pm 13:15 Sunny 82 27.5 64 17.7 55 55 S 10 17 29.83 1010 10 16.09344 0 0
1:35 pm 13:35 Sunny 81 27.3 64 17.7 56 56 S 10 17 29.83 1010 10 16.09344 0 0
1:55 pm 13:55 Sunny 82 27.5 65 18.1 57 57 S 9 15 29.83 1010 10 16.09344 0 0
2:15 pm 14:15 Sunny 83 28.5 65 18.3 54 54 SSE 13 20 29.83 1010 10 16.09344 0 0
2:35 pm 14:35 Partly Cloudy 82 27.9 64 17.9 55 55 SSE 13 20 29.83 1010 10 16.09344 0 0
2:55 pm 14:55 Partly Cloudy 82 27.9 64 17.7 54 54 S 14 22 29.83 1010 10 16.09344 0 0
3:15 pm 15:15 Sunny 82 27.8 64 18 55 55 S 13 20 29.83 1010 10 16.09344 0 0
3:35 pm 15:35 Sunny 82 27.9 64 18 55 55 SSE 12 19 29.83 1010 10 16.09344 0 0
3:55 pm 15:55 Sunny 82 27.8 64 17.9 55 55 S 16 26 29.8 1009 10 16.09344 0 0
4:15 pm 16:15 Sunny 82 28 65 18.2 55 55 SSE 14 22 29.8 1009 10 16.09344 0 0
4:35 pm 16:35 Sunny 82 27.7 64 17.5 54 54 S 12 19 29.8 1009 10 16.09344 0 0
4:55 pm 16:55 Sunny 82 27.8 64 17.5 54 54 S 13 20 29.8 1009 10 16.09344 0 0
5:15 pm 17:15 Sunny 81 27.2 64 17.7 56 56 SSE 12 19 29.8 1009 10 16.09344 0 0
5:35 pm 17:35 Sunny 81 27.4 65 18.2 57 57 SSE 13 20 29.8 1009 10 16.09344 0 0
5:55 pm 17:55 Sunny 82 27.5 64 17.9 56 56 SSE 9 15 29.8 1009 10 16.09344 0 0
6:15 pm 18:15 Sunny 81 27.3 64 17.6 55 55 SSE 9 15 29.8 1009 10 16.09344 0 0
6:35 pm 18:35 Sunny 80 26.6 64 17.7 58 58 SSE 8 13 29.8 1009 10 16.09344 0 0
6:55 pm 18:55 Sunny 79 26.3 63 17.4 58 58 SSE 10 17 29.8 1009 10 16.09344 0 0
7:15 pm 19:15 Sunny 78 25.6 63 17 59 59 S 14 22 29.83 1010 10 16.09344 0 0
7:35 pm 19:35 Sunny 77 25 62 16.8 60 60 SSE 14 22 29.83 1010 10 16.09344 0 0
7:55 pm 19:55 Sunny 75 24.1 62 16.7 63 63 SSE 10 17 29.83 1010 10 16.09344 0 0
8:15 pm 20:15 Sunny 74 23.5 62 16.5 65 65 SSE 10 17 29.83 1010 10 16.09344 0 0
8:35 pm 20:35 Clear 72 22.4 61 16.2 68 68 SSE 8 13 29.85 1011 10 16.09344 0 0
8:55 pm 20:55 Clear 71 21.6 61 15.9 70 70 SSE 7 11 29.85 1011 10 16.09344 0 0
9:15 pm 21:15 Clear 70 21.1 60 15.4 70 70 SSE 7 11 29.85 1011 10 16.09344 0 0
9:35 pm 21:35 Clear 69 20.8 59 15.1 70 70 SSE 8 13 29.85 1011 10 16.09344 0 0
9:55 pm 21:55 Clear 69 20.3 58 14.6 70 70 SSE 9 15 29.85 1011 10 16.09344 0 0
10:15 pm 22:15 Clear 68 20.2 57 14.1 68 68 SSE 9 15 29.88 1012 10 16.09344 0 0
10:35 pm 22:35 Clear 68 20.1 57 14 68 68 SE 9 15 29.88 1012 10 16.09344 0 0
10:55 pm 22:55 Clear 68 20.2 56 13.6 66 66 SE 8 13 29.88 1012 10 16.09344 0 0
11:15 pm 23:15 Clear 69 20.5 56 13.5 64 64 SSE 9 15 29.88 1012 10 16.09344 0 0
11:35 pm 23:35 Clear 69 20.6 55 13 62 62 SSE 10 17 29.88 1012 10 16.09344 0 0
11:55 pm 23:55 Clear with Nearby Thunderstorms 69 20.4 55 12.7 61 61 SSE 9 15 29.88 1012 10 16.09344 0 0

Powered by AerisWeather